#timestamp,LO_Frequency,Hit,StdDev 
1592010015.2,286047000.9,N
1592010035.1,286047000.8,N
1592010036.0,286047000.8,N
1592010055.8,286047000.6,N
1592010075.6,286047000.7,N
1592010095.5,286047001.2,N
1592010115.3,286047001.1,N
1592010135.2,286047001.2,N
1592010155.9,286046998.7,N
1592010175.7,286046999.1,N
1592010195.6,286046999.4,N
1592010215.4,286047000.3,N
1592010235.2,286047005.7,N
1592010255.1,286047002.0,N
1592010256.0,286047002.0,N
1592010275.8,286047011.9,N
1592010295.7,286046998.2,N
1592010315.5,286047000.5,N
1592010335.3,286047002.3,N
1592010355.2,286047000.5,N
1592010375.0,286047002.6,N
1592010375.9,286047002.6,N
1592010395.8,286047002.6,N
1592010415.6,286047001.6,N
1592010435.4,286047002.0,N
1592010455.3,286047001.7,N
1592010475.1,286047003.6,N
1592010495.9,286047002.6,N
1592010515.7,286047003.2,N
1592010535.5,286047005.6,N
1592010555.4,286047005.2,N
1592010575.2,286047003.4,N
1592010595.1,286047002.1,N
1592010596.0,286047002.1,N
1592010615.8,286047003.1,N
1592010635.6,286047007.5,N
1592010655.5,286047007.3,N
1592010675.3,286047007.5,N
1592010695.2,286047005.3,N
1592010715.9,286047003.7,N
1592010735.7,286047005.8,N
1592010755.6,286047007.0,N
1592010775.4,286047008.3,Y
1592010795.3,286047005.0,P
1592010815.1,286047004.5,P
1592010816.0,286047004.5,P
1592010835.8,286047006.0,Y
1592010855.7,286047000.8,P
1592010875.5,286046999.4,N
1592010895.3,286046996.8,N
1592010915.2,286046995.3,N
1592010935.0,286046993.8,N
1592010935.9,286046993.8,N
1592010955.8,286046995.8,N
1592010975.6,286046993.7,N
1592010995.4,286046994.4,N
1592011015.3,286046991.9,N
1592011035.1,286046992.2,N
1592011055.9,286046992.0,N
1592011075.7,286046992.6,N
1592011095.5,286046994.4,N
1592011115.4,286046992.1,N
1592011135.2,286046992.6,N
1592011155.0,286046992.9,N
1592011155.9,286046992.9,N
1592011175.8,286046992.8,N
1592011195.6,286046990.4,N
1592011215.5,286046990.7,N
1592011235.3,286046992.6,N
1592011255.1,286046993.0,N
1592011275.9,286046992.6,N
1592011295.7,286046992.5,N
1592011315.5,286046992.0,N
1592011335.4,286046992.4,N
1592011355.2,286046990.4,Y
1592011375.1,286046997.7,P
1592011376.0,286046997.7,N
1592011395.8,286046997.1,N
1592011415.6,286046997.9,N
1592011435.5,286046994.9,Y
1592011455.3,286046998.3,P
1592011475.2,286046998.4,N
1592011495.9,286046998.8,N
1592011515.7,286046999.4,N
1592011535.6,286046998.2,N
1592011555.4,286046998.5,N
1592011575.2,286047000.9,N
1592011595.1,286046999.4,N
1592011596.0,286046999.4,N
1592011615.8,286046999.2,N
1592011635.7,286046997.9,N
1592011655.5,286046997.4,N
1592011675.4,286046997.7,N
1592011695.2,286046996.7,Y
1592011715.0,286047001.0,P
1592011715.9,286047001.0,N
1592011735.8,286047001.1,N
1592011755.6,286047000.1,N
1592011775.4,286047000.7,N
1592011795.3,286047000.9,N
1592011815.1,286047000.3,N
1592011835.9,286047001.1,N
1592011855.7,286047001.0,N
1592011875.5,286047000.4,N
1592011895.4,286047000.7,N
1592011915.2,286046998.4,N
1592011935.1,286046999.0,N
1592011936.0,286046999.0,N
1592011955.8,286046999.2,N
1592011975.6,286046998.9,N
1592011995.5,286046999.1,N
1592012015.3,286046997.0,Y
1592012035.2,286046997.1,P
1592012055.9,286046998.8,N
1592012075.7,286047000.9,N
1592012095.6,286047002.7,N
1592012115.4,286047000.4,N
1592012135.2,286047000.9,N
1592012155.1,286046998.3,N
1592012156.0,286046998.3,N
1592012175.8,286046998.7,N
1592012195.7,286046998.4,N
1592012215.5,286046999.0,N
1592012235.3,286046999.6,N
1592012255.2,286046998.7,N
1592012275.0,286046998.4,N
1592012275.9,286046998.4,N
1592012295.8,286046999.3,N
1592012315.6,286046998.2,N
1592012335.4,286046996.5,N
1592012355.3,286046999.1,N
1592012375.1,286046999.3,N
1592012395.9,286046996.5,N
1592012415.7,286046999.5,N
1592012435.5,286046999.2,N
1592012455.4,286046999.4,N
1592012475.2,286046998.6,N
1592012495.0,286046999.4,N
1592012495.9,286046999.4,N
1592012515.8,286046998.3,N
1592012535.6,286047000.5,N
1592012555.5,286047000.3,N
1592012575.3,286046998.2,N
1592012595.1,286046999.9,N
1592012615.9,286047000.9,N
1592012635.7,286047000.7,N
1592012655.6,286047000.8,N
1592012675.4,286047001.1,N
1592012695.2,286047000.0,N
1592012715.5,286046998.1,N
1592012735.3,286046998.1,N
1592012755.2,286047001.1,N
1592012775.0,286046998.2,N
1592012775.9,286046998.2,N
1592012795.7,286047002.8,N
1592012815.6,286047001.9,N
1592012835.4,286047002.4,N
1592012855.3,286047002.0,N
1592012875.1,286047001.8,N
1592012876.0,286047001.8,N
1592012895.8,286047001.9,N
1592012915.7,286047002.0,N
1592012935.5,286047002.2,N
1592012955.4,286047001.5,N
1592012975.2,286047004.3,N
1592012995.0,286047003.8,N
1592012995.9,286047003.8,N
1592013015.8,286047001.8,N
1592013035.6,286047001.9,N
1592013055.5,286046999.8,N
1592013075.3,286047002.0,N
1592013095.1,286047002.6,N
1592013115.9,286047000.6,N
1592013135.7,286047000.0,N
1592013155.6,286047000.9,N
1592013175.4,286046998.1,N
1592013195.2,286047000.9,N
1592013215.1,286047001.2,N
1592013216.0,286047001.2,N
1592013235.8,286047001.2,N
1592013255.7,286046998.1,N
1592013275.5,286046998.1,N
1592013295.3,286047000.6,N
1592013315.2,286046999.3,N
1592013335.0,286046998.2,N
1592013335.9,286046998.2,N
1592013355.8,286047000.9,N
1592013375.6,286047004.4,N
1592013395.4,286046998.5,N
1592013415.3,286047000.5,N
1592013435.1,286046998.2,N
1592013455.9,286046999.6,N
1592013475.7,286046998.9,N
1592013495.5,286046998.8,N
1592013515.4,286046998.5,N
1592013535.2,286047001.1,N
1592013555.1,286047000.9,N
1592013556.0,286047000.9,N
1592013575.8,286047000.3,N
1592013595.6,286047001.0,N
